Home > Weather > Marseille > Past weeks

Flag for France Past Weather in Marseille, Provence-Alpes-Côte d'Azur, France — Yesterday and Last 2 Weeks

Now
82 °F

Thundershowers. Overcast.


Feels Like: 82 °F
Forecast: 70 / 81 °F
Wind: 17 mph from Northwest

Location: Marseille / Marignane

Current Time: Aug 29, 2016 at 10:00:54 PM

Latest Report: Aug 29, 2016 at 9:30 PM


Visibility: N/A

Pressure: 29.98 "Hg

Humidity: 40%

Dew Point: 55 °F

Location of MarseilleLocation

Past Weather in Marseille — Graph

°F

Marseille Temperature Yesterday

Maximum temperature yesterday: 86 °F (at 2:00 PM)
Minimum temperature yesterday: 64 °F (at 7:00 AM)
Average temperature yesterday: 76 °F

High & Low Weather Summary for the Past Weeks

 TemperatureHumidityPressure
High91 °F (Aug 29, 4:30 PM)89% (Aug 16, 11:00 PM)30.24 "Hg (Aug 16, 11:00 PM)
Low63 °F (Aug 15, 6:00 AM)25% (Aug 22, 4:00 PM)29.80 "Hg (Aug 18, 5:30 AM)
Average77 °F57%30.03 "Hg
* Reported Aug 14 9:00 PM — Aug 29 9:00 PM, Marseille, Weather by CustomWeather, © 2016

Note: Actual official high and low records may vary slightly from our data, if they occured in-between our weather recording intervals... More about our weather records

Advertising

Marseille Weather History for the Previous 24 Hours

Scroll right to see more
 ConditionsComfort  
Time TempWeatherWind HumidityBarometerVisibility
9:00 PM
Mon, Aug 29
82 °FPleasantly warm.15 mph40%29.98 "HgN/A
8:30 PM84 °FPleasantly warm.16 mph37%29.95 "HgN/A
8:00 PM84 °FSunny.12 mph40%29.95 "Hg10 mi
7:30 PM86 °FPassing clouds.13 mph38%29.95 "HgN/A
7:00 PM88 °FSunny.15 mph38%29.95 "Hg10 mi
6:30 PM88 °FSunny.16 mph38%29.95 "Hg10 mi
6:00 PM86 °FPassing clouds.15 mph52%29.95 "HgN/A
5:30 PM88 °FPassing clouds.12 mph49%29.98 "HgN/A
5:00 PM91 °FSunny.13 mph38%29.98 "Hg10 mi
4:30 PM91 °FSunny.14 mph38%29.98 "Hg10 mi
4:00 PM90 °FPassing clouds.15 mph38%29.98 "HgN/A
3:30 PM90 °FSunny.17 mph41%29.98 "Hg10 mi
3:00 PM88 °FSunny.16 mph43%30.01 "Hg10 mi
2:30 PM86 °FSunny.17 mph46%30.01 "Hg10 mi
2:00 PM88 °FSunny.22 mph43%30.01 "Hg10 mi
1:30 PM90 °FSunny.14 mph41%30.01 "Hg10 mi
1:00 PM88 °FPartly sunny.14 mph43%30.01 "HgN/A
12:30 PM86 °FSunny.13 mph46%30.04 "Hg10 mi
12:00 PM86 °FSunny.12 mph49%30.04 "Hg10 mi
11:30 AM84 °FPassing clouds.9 mph48%30.04 "HgN/A
11:00 AM81 °FPassing clouds.6 mph62%30.04 "HgN/A
10:30 AM79 °FSunny.3 mph65%30.04 "Hg10 mi
10:00 AM75 °FPassing clouds.3 mph78%30.04 "HgN/A
9:30 AM75 °FPassing clouds.6 mph78%30.04 "HgN/A
9:00 AM73 °FPartly sunny.6 mph83%30.04 "HgN/A
8:30 AM73 °FPartly sunny.6 mph83%30.04 "Hg6 mi
8:00 AM73 °FOvercast.5 mph89%30.04 "Hg5 mi
7:30 AM72 °FPassing clouds.3 mph88%30.04 "Hg6 mi
7:00 AM73 °FMostly cloudy.8 mph83%30.04 "Hg5 mi
6:30 AM73 °FPartly cloudy.5 mph83%30.04 "Hg6 mi
6:00 AM73 °FClear.7 mph83%30.04 "Hg6 mi
5:30 AM73 °FClear.5 mph83%30.04 "Hg6 mi
5:00 AM73 °FClear.6 mph83%30.04 "Hg10 mi
4:30 AM73 °FClear.6 mph83%30.04 "Hg10 mi
4:00 AM73 °FClear.5 mph83%30.04 "Hg10 mi
3:30 AM73 °FPassing clouds.6 mph83%30.04 "HgN/A
3:00 AM73 °FClear.7 mph83%30.04 "Hg10 mi
2:30 AM75 °FClear.7 mph78%30.07 "Hg10 mi
2:00 AM75 °FPartly cloudy.5 mph78%30.07 "HgN/A
1:30 AM75 °FPassing clouds.2 mph83%30.07 "HgN/A
1:00 AM75 °FPassing clouds.No wind83%30.07 "HgN/A
12:30 AM75 °FOvercast.No wind78%30.07 "HgN/A
12:00 AM75 °FOvercast.2 mph78%30.09 "HgN/A
11:30 PM
Sun, Aug 28
75 °FPassing clouds.1 mph78%30.09 "HgN/A
11:00 PM75 °FOvercast.5 mph78%30.09 "HgN/A
10:30 PM75 °FOvercast.6 mph83%30.09 "HgN/A
10:00 PM75 °FOvercast.7 mph83%30.07 "HgN/A
Weather by CustomWeather, © 2016

See weather overviewHow to use our weather pages